Location: Asheville, NC
(35.6000°N, 82.5500°W)
Time: 20:15:41

N. Korean satellite - Pass Details

Date: 14 December 2017
Orbit: 460 x 512 km, 97.2° (Epoch: 21 March)

Event Time Altitude Azimuth Distance (km) Brightness Sun altitude
Rises 19:24:35 0° 203° (SSW) 2,574 10.7 -24.9°
Reaches altitude 10° 19:27:13 10° 224° (SW) 1,706 10.0 -25.4°
Maximum altitude 19:29:40 17° 266° (W) 1,340 9.6 -25.9°
Drops below altitude 10° 19:32:09 10° 308° (NW) 1,729 9.8 -26.4°
Sets 19:34:52 0° 329° (NNW) 2,626 10.5 -27.0°
